�������l�o���
Date,Time,MP-1(��Sv/h),MP-2(��Sv/h),MP-3(��Sv/h),MP-4(��Sv/h),MP-5(��Sv/h),MP-6(��Sv/h),MP-7(��Sv/h),MP-8(��Sv/h),����,����(m/s),���J
2022/11/10,00:00,0.588,0.854,0.531,1.073,0.754,0.340,0.598,0.564,��쐼,3.8,��
2022/11/10,00:10,0.590,0.851,0.532,1.072,0.753,0.339,0.598,0.563,��쐼,3.2,��
2022/11/10,00:20,0.589,0.854,0.533,1.075,0.754,0.340,0.598,0.561,��쐼,3.1,��
2022/11/10,00:30,0.588,0.853,0.533,1.072,0.755,0.339,0.598,0.562,��쐼,2.3,��
2022/11/10,00:40,0.589,0.854,0.533,1.074,0.753,0.340,0.597,0.563,��쐼,1.4,��
2022/11/10,00:50,0.590,0.852,0.533,1.073,0.755,0.338,0.597,0.562,��쐼,1.7,��
2022/11/10,01:00,0.589,0.855,0.531,1.074,0.753,0.337,0.597,0.562,��쐼,2.3,��
2022/11/10,01:10,0.590,0.854,0.533,1.073,0.753,0.340,0.599,0.564,�쐼,3.4,��
2022/11/10,01:20,0.591,0.854,0.533,1.074,0.753,0.338,0.598,0.562,�쐼,4.4,��
2022/11/10,01:30,0.589,0.852,0.531,1.071,0.754,0.337,0.597,0.562,�쐼,4.4,��
2022/11/10,01:40,0.591,0.853,0.532,1.073,0.753,0.337,0.599,0.563,�쐼,4.1,��
2022/11/10,01:50,0.590,0.853,0.532,1.072,0.753,0.338,0.597,0.563,�쐼,4.4,��
2022/11/10,02:00,0.589,0.855,0.532,1.072,0.753,0.339,0.598,0.564,�쐼,3.8,��
2022/11/10,02:10,0.590,0.852,0.532,1.074,0.754,0.338,0.598,0.563,���쐼,3.0,��
2022/11/10,02:20,0.589,0.853,0.532,1.075,0.754,0.338,0.599,0.563,��,2.2,��
2022/11/10,02:30,0.588,0.852,0.533,1.074,0.753,0.338,0.598,0.561,-,CALM,��
2022/11/10,02:40,0.589,0.851,0.532,1.075,0.753,0.339,0.597,0.564,���쐼,0.8,��
2022/11/10,02:50,0.590,0.852,0.534,1.074,0.754,0.340,0.598,0.562,���k��,1.5,��
2022/11/10,03:00,0.590,0.853,0.533,1.072,0.754,0.339,0.599,0.562,�k��,2.0,��
2022/11/10,03:10,0.588,0.853,0.531,1.071,0.752,0.338,0.599,0.563,�k��,1.7,��
2022/11/10,03:20,0.589,0.854,0.530,1.071,0.756,0.337,0.599,0.563,�k��,1.5,��
2022/11/10,03:30,0.589,0.853,0.531,1.074,0.753,0.339,0.598,0.563,�k��,1.2,��
2022/11/10,03:40,0.590,0.851,0.532,1.070,0.754,0.339,0.598,0.562,�k�k��,0.9,��
2022/11/10,03:50,0.589,0.854,0.532,1.071,0.752,0.339,0.598,0.563,�k��,1.1,��
2022/11/10,04:00,0.589,0.853,0.531,1.071,0.754,0.339,0.598,0.562,���k��,0.6,��
2022/11/10,04:10,0.588,0.851,0.533,1.075,0.754,0.338,0.599,0.562,���쐼,0.6,��
2022/11/10,04:20,0.586,0.853,0.533,1.072,0.752,0.338,0.598,0.563,���쐼,1.1,��
2022/11/10,04:30,0.587,0.851,0.532,1.073,0.754,0.338,0.598,0.562,��,0.9,��
2022/11/10,04:40,0.589,0.855,0.532,1.073,0.753,0.338,0.599,0.563,���k��,2.0,��
2022/11/10,04:50,0.589,0.853,0.533,1.070,0.755,0.339,0.598,0.563,�k��,2.6,��
2022/11/10,05:00,0.589,0.852,0.532,1.072,0.753,0.338,0.599,0.563,���k��,3.3,��
2022/11/10,05:10,0.588,0.854,0.533,1.073,0.756,0.337,0.598,0.561,�k��,3.6,��
2022/11/10,05:20,0.589,0.853,0.533,1.072,0.753,0.339,0.599,0.561,���k��,3.5,��
2022/11/10,05:30,0.589,0.853,0.533,1.074,0.753,0.339,0.598,0.562,��,3.6,��
2022/11/10,05:40,0.589,0.850,0.531,1.073,0.753,0.339,0.598,0.563,���k��,4.4,��
2022/11/10,05:50,0.590,0.852,0.531,1.074,0.754,0.337,0.599,0.563,���k��,4.8,��
2022/11/10,06:00,0.588,0.851,0.533,1.074,0.752,0.339,0.598,0.562,���k��,4.2,��
2022/11/10,06:10,0.589,0.853,0.532,1.074,0.753,0.337,0.597,0.562,���k��,3.8,��
2022/11/10,06:20,0.589,0.851,0.531,1.071,0.752,0.338,0.598,0.564,�k��,5.0,��
2022/11/10,06:30,0.589,0.852,0.532,1.073,0.754,0.340,0.598,0.561,���k��,4.6,��
2022/11/10,06:40,0.588,0.854,0.531,1.073,0.753,0.338,0.598,0.563,���k��,4.5,��
2022/11/10,06:50,0.589,0.852,0.532,1.072,0.753,0.339,0.599,0.563,��,2.3,��
2022/11/10,07:00,0.589,0.853,0.532,1.071,0.754,0.338,0.597,0.562,��,2.6,��
2022/11/10,07:10,0.591,0.853,0.534,1.070,0.755,0.339,0.598,0.562,��,2.3,��
2022/11/10,07:20,0.590,0.851,0.533,1.072,0.752,0.338,0.599,0.563,�쐼,2.3,��
2022/11/10,07:30,0.590,0.853,0.534,1.074,0.756,0.338,0.598,0.564,�쐼,2.2,��
2022/11/10,07:40,0.591,0.852,0.532,1.073,0.753,0.339,0.598,0.563,���쐼,2.0,��
2022/11/10,07:50,0.589,0.854,0.531,1.073,0.751,0.338,0.599,0.563,�쐼,2.5,��
2022/11/10,08:00,0.590,0.853,0.531,1.072,0.753,0.338,0.600,0.563,���쐼,2.6,��
2022/11/10,08:10,0.590,0.852,0.532,1.072,0.753,0.338,0.598,0.563,���쐼,2.3,��
2022/11/10,08:20,0.592,0.851,0.534,1.073,0.753,0.337,0.599,0.563,���쐼,2.6,��
2022/11/10,08:30,0.590,0.850,0.533,1.073,0.755,0.340,0.599,0.564,���쐼,2.3,��
2022/11/10,08:40,0.590,0.851,0.533,1.074,0.753,0.339,0.599,0.564,���쐼,2.0,��
2022/11/10,08:50,0.592,0.852,0.531,1.072,0.754,0.340,0.597,0.563,��,0.9,��
2022/11/10,09:00,0.591,0.852,0.533,1.074,0.755,0.339,0.598,0.564,�k�k��,0.6,��
2022/11/10,09:10,0.593,0.853,0.534,1.073,0.755,0.338,0.597,0.565,�k��,0.6,��
2022/11/10,09:20,0.594,0.852,0.533,1.074,0.754,0.340,0.598,0.564,-,CALM,��
2022/11/10,09:30,0.592,0.851,0.534,1.073,0.755,0.340,0.598,0.564,�k��,1.2,��
2022/11/10,09:40,0.591,0.851,0.533,1.073,0.756,0.340,0.596,0.566,�k�k��,0.8,��
2022/11/10,09:50,0.592,0.852,0.533,1.076,0.753,0.340,0.598,0.565,�k�k��,1.5,��
2022/11/10,10:00,0.590,0.850,0.534,1.073,0.751,0.338,0.598,0.564,�k�k��,2.0,��
2022/11/10,10:10,0.591,0.850,0.532,1.074,0.752,0.338,0.598,0.565,���k��,2.5,��
2022/11/10,10:20,0.592,0.851,0.532,1.075,0.754,0.338,0.599,0.564,�k�k��,2.3,��
2022/11/10,10:30,0.591,0.851,0.531,1.075,0.753,0.337,0.598,0.564,�k��,2.3,��
2022/11/10,10:40,0.592,0.853,0.532,1.074,0.751,0.339,0.597,0.564,�k��,1.5,��
2022/11/10,10:50,0.592,0.851,0.533,1.074,0.754,-,0.598,0.564,���k��,2.0,��
2022/11/10,11:00,0.591,0.854,0.532,1.074,0.753,-,0.599,0.565,�k��,2.0,��
2022/11/10,11:10,0.590,0.853,0.533,1.073,0.753,-,0.597,0.563,�k��,1.7,��
2022/11/10,11:20,0.592,0.852,0.533,1.073,0.754,-,0.598,0.563,���k��,2.3,��
2022/11/10,11:30,0.592,0.852,0.532,1.072,0.754,-,0.598,0.564,�k��,1.7,��
2022/11/10,11:40,0.589,0.853,0.531,1.074,0.754,-,0.599,0.565,��,1.5,��
2022/11/10,11:50,0.591,0.852,0.533,1.076,0.753,-,0.598,0.565,���k��,2.3,��
2022/11/10,12:00,0.592,0.852,0.533,1.073,0.753,-,0.600,0.566,�k��,1.9,��
2022/11/10,12:10,0.592,0.852,0.533,1.075,0.755,-,0.598,0.564,���k��,1.9,��
2022/11/10,12:20,0.593,0.855,0.532,1.075,0.754,-,0.600,0.564,�k��,2.0,��
2022/11/10,12:30,0.592,0.853,0.531,1.074,0.755,-,0.599,0.563,���k��,1.9,��
2022/11/10,12:40,0.592,0.854,0.533,1.075,0.756,-,0.599,0.563,�k��,2.3,��
2022/11/10,12:50,0.592,0.854,0.532,1.077,0.755,-,0.599,0.563,�k��,2.5,��
2022/11/10,13:00,0.592,0.855,0.533,1.074,0.756,-,0.598,0.563,�k�k��,3.3,��
2022/11/10,13:10,0.593,0.853,0.534,1.076,0.753,-,0.599,0.562,�k��,2.9,��
2022/11/10,13:20,0.593,0.852,0.532,1.076,0.755,-,0.598,0.561,�k��,2.3,��
2022/11/10,13:30,0.593,0.854,0.534,1.074,0.755,-,0.597,0.563,�k�k��,2.3,��
2022/11/10,13:40,0.591,0.853,0.532,1.074,0.754,-,0.598,0.563,�k�k��,1.5,��
2022/11/10,13:50,0.593,0.851,0.533,1.075,0.755,-,0.599,0.562,�k�k��,1.5,��
2022/11/10,14:00,0.593,0.853,0.534,1.075,0.754,-,0.598,0.562,�k��,0.8,��
2022/11/10,14:10,0.592,0.853,0.531,1.075,0.754,-,0.599,0.562,�쓌,1.5,��
2022/11/10,14:20,0.590,0.852,0.534,1.074,0.755,0.339,0.597,0.564,�쓌,1.2,��
2022/11/10,14:30,0.592,0.851,0.534,1.076,0.755,0.341,0.598,0.562,��쓌,1.7,��
2022/11/10,14:40,0.593,0.853,0.533,1.074,0.756,0.341,0.598,0.561,��쓌,1.4,��
2022/11/10,14:50,0.595,0.852,0.532,1.077,0.754,0.339,0.599,0.562,�쓌,2.3,��
2022/11/10,15:00,0.595,0.854,0.532,1.074,0.754,0.339,0.599,0.562,�쓌,1.7,��
2022/11/10,15:10,0.594,0.853,0.532,1.075,0.755,0.339,0.599,0.562,��쓌,1.7,��
2022/11/10,15:20,0.594,0.855,0.534,1.077,0.754,0.340,0.599,0.562,��쓌,1.5,��
2022/11/10,15:30,0.596,0.855,0.533,1.073,0.753,0.342,0.597,0.562,��쓌,1.7,��
2022/11/10,15:40,0.592,0.856,0.535,1.075,0.754,0.341,0.599,0.563,��,2.6,��
2022/11/10,15:50,0.591,0.857,0.533,1.077,0.755,0.342,0.599,0.564,��쓌,2.5,��
2022/11/10,16:00,0.591,0.857,0.532,1.074,0.754,0.342,0.600,0.564,��,2.3,��
2022/11/10,16:10,0.591,0.857,0.534,1.076,0.753,0.343,0.599,0.566,��,2.3,��
2022/11/10,16:20,0.591,0.856,0.533,1.076,0.753,0.342,0.599,0.564,��,2.0,��
2022/11/10,16:30,0.589,0.856,0.532,1.075,0.753,0.341,0.599,0.563,��,1.1,��
2022/11/10,16:40,0.592,0.857,0.532,1.073,0.753,0.342,0.599,0.564,��,2.0,��
2022/11/10,16:50,0.592,0.857,0.535,1.077,0.753,0.342,0.598,0.564,��쐼,3.2,��
2022/11/10,17:00,0.591,0.856,0.534,1.073,0.756,0.341,0.600,0.564,��쐼,2.3,��
2022/11/10,17:10,0.591,0.858,0.533,1.074,0.755,0.341,0.599,0.564,��,2.2,��
2022/11/10,17:20,0.591,0.859,0.534,1.075,0.756,0.340,0.597,0.565,�쐼,1.2,��
2022/11/10,17:30,0.593,0.858,0.536,1.075,0.756,0.339,0.597,0.563,�쐼,1.4,��
2022/11/10,17:40,0.591,0.858,0.533,1.073,0.757,0.341,0.600,0.564,���k��,1.2,��
2022/11/10,17:50,0.591,0.857,0.533,1.073,0.756,0.342,0.598,0.564,�k��,3.2,��
2022/11/10,18:00,0.593,0.857,0.533,1.074,0.755,0.339,0.600,0.565,��,2.3,��
2022/11/10,18:10,0.591,0.857,0.534,1.075,0.755,0.340,0.597,0.564,���k��,1.9,��
2022/11/10,18:20,0.593,0.857,0.534,1.074,0.754,0.341,0.599,0.565,���k��,1.9,��
2022/11/10,18:30,0.592,0.857,0.533,1.074,0.757,0.341,0.598,0.563,�k��,2.6,��
2022/11/10,18:40,0.591,0.855,0.535,1.073,0.756,0.341,0.599,0.563,��,1.2,��
2022/11/10,18:50,0.592,0.858,0.534,1.074,0.756,0.340,0.599,0.564,��,1.9,��
2022/11/10,19:00,0.593,0.854,0.536,1.075,0.756,0.339,0.599,0.562,���k��,3.1,��
2022/11/10,19:10,0.591,0.856,0.535,1.076,0.756,0.340,0.599,0.563,���k��,3.3,��
2022/11/10,19:20,0.593,0.856,0.535,1.074,0.758,0.341,0.598,0.563,���k��,4.2,��
2022/11/10,19:30,0.591,0.857,0.534,1.075,0.756,0.339,0.598,0.563,���k��,5.1,��
2022/11/10,19:40,0.591,0.855,0.534,1.075,0.756,0.341,0.598,0.563,���k��,5.1,��
2022/11/10,19:50,0.591,0.857,0.534,1.076,0.756,0.340,0.598,0.564,���k��,5.2,��
2022/11/10,20:00,0.591,0.855,0.535,1.077,0.755,0.338,0.599,0.562,���k��,5.2,��
2022/11/10,20:10,0.593,0.855,0.533,1.076,0.757,0.339,0.598,0.565,���k��,5.4,��
2022/11/10,20:20,0.590,0.855,0.534,1.074,0.755,0.338,0.598,0.564,���k��,6.1,��
2022/11/10,20:30,0.591,0.854,0.533,1.076,0.754,0.339,0.598,0.563,���k��,5.8,��
2022/11/10,20:40,0.592,0.854,0.534,1.075,0.756,0.339,0.599,0.564,��,5.1,��
2022/11/10,20:50,0.591,0.856,0.534,1.076,0.755,0.339,0.598,0.563,���k��,4.0,��
2022/11/10,21:00,0.592,0.855,0.534,1.074,0.756,0.339,0.598,0.562,��,4.3,��
2022/11/10,21:10,0.593,0.853,0.533,1.076,0.755,0.340,0.598,0.564,��,3.6,��
2022/11/10,21:20,0.590,0.856,0.533,1.074,0.756,0.340,0.599,0.563,��,4.2,��
2022/11/10,21:30,0.590,0.855,0.532,1.075,0.756,0.339,0.597,0.562,��,4.4,��
2022/11/10,21:40,0.590,0.855,0.532,1.075,0.756,0.339,0.599,0.563,��,4.1,��
2022/11/10,21:50,0.592,0.855,0.533,1.074,0.755,0.340,0.597,0.561,��,4.4,��
2022/11/10,22:00,0.589,0.854,0.534,1.074,0.755,0.339,0.598,0.564,���k��,4.6,��
2022/11/10,22:10,0.592,0.855,0.533,1.076,0.755,0.339,0.598,0.563,���k��,3.2,��
2022/11/10,22:20,0.590,0.856,0.533,1.075,0.756,0.339,0.599,0.563,���k��,3.1,��
2022/11/10,22:30,0.590,0.857,0.532,1.075,0.754,0.341,0.600,0.563,���k��,4.0,��
2022/11/10,22:40,0.591,0.855,0.533,1.074,0.755,0.340,0.598,0.563,���k��,4.5,��
2022/11/10,22:50,0.592,0.856,0.534,1.076,0.755,0.340,0.599,0.561,��,4.1,��
2022/11/10,23:00,0.590,0.856,0.533,1.075,0.758,0.338,0.598,0.564,��,3.4,��
2022/11/10,23:10,0.590,0.854,0.534,1.073,0.756,0.339,0.598,0.563,���k��,4.6,��
2022/11/10,23:20,0.591,0.853,0.534,1.075,0.756,0.339,0.601,0.564,���k��,5.7,��
2022/11/10,23:30,0.591,0.856,0.535,1.076,0.755,0.339,0.599,0.564,��,6.4,��
2022/11/10,23:40,0.591,0.854,0.534,1.075,0.756,0.339,0.598,0.563,��,5.4,��
2022/11/10,23:50,0.590,0.854,0.533,1.076,0.755,0.339,0.600,0.564,��,4.7,��
